Year,Month,Day,Hour,Minute,Value (Times are PST for temperature in C)
2005,07,10,00,00,15.30
2005,07,10,00,01,15.30
2005,07,10,00,02,15.30
2005,07,10,00,03,15.20
2005,07,10,00,04,15.20
2005,07,10,00,05,15.20
2005,07,10,00,06,15.20
2005,07,10,00,07,15.20
2005,07,10,00,08,15.20
2005,07,10,00,09,15.20
2005,07,10,00,10,15.20
2005,07,10,00,11,15.20
2005,07,10,00,12,15.20
2005,07,10,00,13,15.20
2005,07,10,00,14,15.20
2005,07,10,00,15,15.20
2005,07,10,00,16,15.20
2005,07,10,00,17,15.20
2005,07,10,00,18,15.20
2005,07,10,00,19,15.20
2005,07,10,00,20,15.20
2005,07,10,00,21,15.20
2005,07,10,00,22,15.20
2005,07,10,00,23,15.20
2005,07,10,00,24,15.20
2005,07,10,00,25,15.10
2005,07,10,00,26,15.10
2005,07,10,00,27,15.10
2005,07,10,00,28,15.10
2005,07,10,00,29,15.10
2005,07,10,00,30,15.10
2005,07,10,00,31,15.10
2005,07,10,00,32,15.10
2005,07,10,00,33,15.00
2005,07,10,00,34,15.00
2005,07,10,00,35,15.00
2005,07,10,00,36,15.00
2005,07,10,00,37,15.00
2005,07,10,00,38,15.00
2005,07,10,00,39,15.10
2005,07,10,00,40,15.10
2005,07,10,00,41,15.00
2005,07,10,00,42,15.00
2005,07,10,00,43,15.00
2005,07,10,00,44,15.00
2005,07,10,00,45,15.00
2005,07,10,00,46,14.90
2005,07,10,00,47,14.90
2005,07,10,00,48,14.90
2005,07,10,00,49,14.90
2005,07,10,00,50,14.90
2005,07,10,00,51,14.90
2005,07,10,00,52,14.90
2005,07,10,00,53,14.90
2005,07,10,00,54,14.90
2005,07,10,00,55,14.80
2005,07,10,00,56,14.80
2005,07,10,00,57,14.80
2005,07,10,00,58,14.80
2005,07,10,00,59,14.80
2005,07,10,01,00,14.80
2005,07,10,01,01,14.80
2005,07,10,01,02,14.80
2005,07,10,01,03,14.80
2005,07,10,01,04,14.90
2005,07,10,01,05,14.90
2005,07,10,01,06,14.90
2005,07,10,01,07,14.90
2005,07,10,01,08,14.90
2005,07,10,01,09,14.90
2005,07,10,01,10,14.90
2005,07,10,01,11,14.90
2005,07,10,01,12,14.90
2005,07,10,01,13,15.00
2005,07,10,01,14,15.00
2005,07,10,01,15,15.00
2005,07,10,01,16,15.00
2005,07,10,01,17,15.00
2005,07,10,01,18,15.00
2005,07,10,01,19,15.00
2005,07,10,01,20,15.00
2005,07,10,01,21,15.00
2005,07,10,01,22,15.00
2005,07,10,01,23,15.00
2005,07,10,01,24,15.00
2005,07,10,01,25,15.00
2005,07,10,01,26,15.00
2005,07,10,01,27,15.00
2005,07,10,01,28,15.00
2005,07,10,01,29,15.00
2005,07,10,01,30,14.90
2005,07,10,01,31,14.90
2005,07,10,01,32,14.90
2005,07,10,01,33,14.90
2005,07,10,01,34,14.90
2005,07,10,01,35,14.90
2005,07,10,01,36,14.90
2005,07,10,01,37,14.90
2005,07,10,01,38,14.90
2005,07,10,01,39,14.90
2005,07,10,01,40,14.90
2005,07,10,01,41,14.80
2005,07,10,01,42,14.80
2005,07,10,01,43,14.80
2005,07,10,01,44,14.80
2005,07,10,01,45,14.80
2005,07,10,01,46,14.80
2005,07,10,01,47,14.80
2005,07,10,01,48,14.80
2005,07,10,01,49,14.80
2005,07,10,01,50,14.80
2005,07,10,01,51,14.80
2005,07,10,01,52,14.80
2005,07,10,01,53,14.80
2005,07,10,01,54,14.80
2005,07,10,01,55,14.80
2005,07,10,01,56,14.80
2005,07,10,01,57,14.80
2005,07,10,01,58,14.70
2005,07,10,01,59,14.70
2005,07,10,02,00,14.70
2005,07,10,02,01,14.70
2005,07,10,02,02,14.70
2005,07,10,02,03,14.60
2005,07,10,02,04,14.60
2005,07,10,02,05,14.60
2005,07,10,02,06,14.60
2005,07,10,02,07,14.60
2005,07,10,02,08,14.50
2005,07,10,02,09,14.50
2005,07,10,02,10,14.50
2005,07,10,02,11,14.50
2005,07,10,02,12,14.50
2005,07,10,02,13,14.50
2005,07,10,02,14,14.50
2005,07,10,02,15,14.50
2005,07,10,02,16,14.50
2005,07,10,02,17,14.50
2005,07,10,02,18,14.50
2005,07,10,02,19,14.50
2005,07,10,02,20,14.50
2005,07,10,02,21,14.50
2005,07,10,02,22,14.50
2005,07,10,02,23,14.50
2005,07,10,02,24,14.50
2005,07,10,02,25,14.50
2005,07,10,02,26,14.50
2005,07,10,02,27,14.50
2005,07,10,02,28,14.50
2005,07,10,02,29,14.50
2005,07,10,02,30,14.50
2005,07,10,02,31,14.50
2005,07,10,02,32,14.50
2005,07,10,02,33,14.50
2005,07,10,02,34,14.50
2005,07,10,02,35,14.40
2005,07,10,02,36,14.40
2005,07,10,02,37,14.40
2005,07,10,02,38,14.40
2005,07,10,02,39,14.40
2005,07,10,02,40,14.40
2005,07,10,02,41,14.40
2005,07,10,02,42,14.30
2005,07,10,02,43,14.30
2005,07,10,02,44,14.30
2005,07,10,02,45,14.30
2005,07,10,02,46,14.30
2005,07,10,02,47,14.30
2005,07,10,02,48,14.20
2005,07,10,02,49,14.20
2005,07,10,02,50,14.20
2005,07,10,02,51,14.20
2005,07,10,02,52,14.20
2005,07,10,02,53,14.20
2005,07,10,02,54,14.20
2005,07,10,02,55,14.20
2005,07,10,02,56,14.20
2005,07,10,02,57,14.10
2005,07,10,02,58,14.10
2005,07,10,02,59,14.10
2005,07,10,03,00,14.10
2005,07,10,03,01,14.10
2005,07,10,03,02,14.10
2005,07,10,03,03,14.10
2005,07,10,03,04,14.10
2005,07,10,03,05,14.10
2005,07,10,03,06,14.00
2005,07,10,03,07,14.00
2005,07,10,03,08,14.00
2005,07,10,03,09,14.00
2005,07,10,03,10,13.90
2005,07,10,03,11,13.90
2005,07,10,03,12,13.90
2005,07,10,03,13,13.80
2005,07,10,03,14,13.80
2005,07,10,03,15,13.80
2005,07,10,03,16,13.80
2005,07,10,03,17,13.80
2005,07,10,03,18,13.70
2005,07,10,03,19,13.70
2005,07,10,03,20,13.70
2005,07,10,03,21,13.70
2005,07,10,03,22,13.70
2005,07,10,03,23,13.70
2005,07,10,03,24,13.70
2005,07,10,03,25,13.70
2005,07,10,03,26,13.70
2005,07,10,03,27,13.70
2005,07,10,03,28,13.70
2005,07,10,03,29,13.70
2005,07,10,03,30,13.70
2005,07,10,03,31,13.70
2005,07,10,03,32,13.70
2005,07,10,03,33,13.70
2005,07,10,03,34,13.70
2005,07,10,03,35,13.70
2005,07,10,03,36,13.70
2005,07,10,03,37,13.70
2005,07,10,03,38,13.70
2005,07,10,03,39,13.70
2005,07,10,03,40,13.70
2005,07,10,03,41,13.70
2005,07,10,03,42,13.70
2005,07,10,03,43,13.70
2005,07,10,03,44,13.70
2005,07,10,03,45,13.70
2005,07,10,03,46,13.70
2005,07,10,03,47,13.70
2005,07,10,03,48,13.70
2005,07,10,03,49,13.70
2005,07,10,03,50,13.70
2005,07,10,03,51,13.70
2005,07,10,03,52,13.70
2005,07,10,03,53,13.70
2005,07,10,03,54,13.70
2005,07,10,03,55,13.70
2005,07,10,03,56,13.70
2005,07,10,03,57,13.70
2005,07,10,03,58,13.70
2005,07,10,03,59,13.70
2005,07,10,04,00,13.70
2005,07,10,04,01,13.70
2005,07,10,04,02,13.70
2005,07,10,04,03,13.70
2005,07,10,04,04,13.70
2005,07,10,04,05,13.70
2005,07,10,04,06,13.70
2005,07,10,04,07,13.70
2005,07,10,04,08,13.70
2005,07,10,04,09,13.70
2005,07,10,04,10,13.70
2005,07,10,04,11,13.70
2005,07,10,04,12,13.70
2005,07,10,04,13,13.70
2005,07,10,04,14,13.70
2005,07,10,04,15,13.70
2005,07,10,04,16,13.70
2005,07,10,04,17,13.70
2005,07,10,04,18,13.70
2005,07,10,04,19,13.70
2005,07,10,04,20,13.70
2005,07,10,04,21,13.70
2005,07,10,04,22,13.70
2005,07,10,04,23,13.60
2005,07,10,04,24,13.60
2005,07,10,04,25,13.60
2005,07,10,04,26,13.60
2005,07,10,04,27,13.60
2005,07,10,04,28,13.50
2005,07,10,04,29,13.50
2005,07,10,04,30,13.50
2005,07,10,04,31,13.50
2005,07,10,04,32,13.50
2005,07,10,04,33,13.50
2005,07,10,04,34,13.40
2005,07,10,04,35,13.40
2005,07,10,04,36,13.40
2005,07,10,04,37,13.40
2005,07,10,04,38,13.30
2005,07,10,04,39,13.30
2005,07,10,04,40,13.30
2005,07,10,04,41,13.30
2005,07,10,04,42,13.30
2005,07,10,04,43,13.30
2005,07,10,04,44,13.30
2005,07,10,04,45,13.30
2005,07,10,04,46,13.30
2005,07,10,04,47,13.30
2005,07,10,04,48,13.30
2005,07,10,04,49,13.30
2005,07,10,04,50,13.30
2005,07,10,04,51,13.30
2005,07,10,04,52,13.30
2005,07,10,04,53,13.30
2005,07,10,04,54,13.30
2005,07,10,04,55,13.30
2005,07,10,04,56,13.30
2005,07,10,04,57,13.30
2005,07,10,04,58,13.30
2005,07,10,04,59,13.30
2005,07,10,05,00,13.30
2005,07,10,05,01,13.30
2005,07,10,05,02,13.30
2005,07,10,05,03,13.30
2005,07,10,05,04,13.30
2005,07,10,05,05,13.30
2005,07,10,05,06,13.30
2005,07,10,05,07,13.30
2005,07,10,05,08,13.30
2005,07,10,05,09,13.30
2005,07,10,05,10,13.30
2005,07,10,05,11,13.30
2005,07,10,05,12,13.30
2005,07,10,05,13,13.30
2005,07,10,05,14,13.40
2005,07,10,05,15,13.40
2005,07,10,05,16,13.40
2005,07,10,05,17,13.40
2005,07,10,05,18,13.40
2005,07,10,05,19,13.40
2005,07,10,05,20,13.40
2005,07,10,05,21,13.50
2005,07,10,05,22,13.50
2005,07,10,05,23,13.50
2005,07,10,05,24,13.50
2005,07,10,05,25,13.50
2005,07,10,05,26,13.50
2005,07,10,05,27,13.60
2005,07,10,05,28,13.60
2005,07,10,05,29,13.60
2005,07,10,05,30,13.60
2005,07,10,05,31,13.60
2005,07,10,05,32,13.60
2005,07,10,05,33,13.60
2005,07,10,05,34,13.70
2005,07,10,05,35,13.70
2005,07,10,05,36,13.70
2005,07,10,05,37,13.70
2005,07,10,05,38,13.70
2005,07,10,05,39,13.70
2005,07,10,05,40,13.70
2005,07,10,05,41,13.70
2005,07,10,05,42,13.70
2005,07,10,05,43,13.70
2005,07,10,05,44,13.70
2005,07,10,05,45,13.70
2005,07,10,05,46,13.70
2005,07,10,05,47,13.70
2005,07,10,05,48,13.70
2005,07,10,05,49,13.70
2005,07,10,05,50,13.70
2005,07,10,05,51,13.70
2005,07,10,05,52,13.70
2005,07,10,05,53,13.70
2005,07,10,05,54,13.70
2005,07,10,05,55,13.70
2005,07,10,05,56,13.70
2005,07,10,05,57,13.70
2005,07,10,05,58,13.70
2005,07,10,05,59,13.70
2005,07,10,06,00,13.70
2005,07,10,06,01,13.70
2005,07,10,06,02,13.70
2005,07,10,06,03,13.70
2005,07,10,06,04,13.70
2005,07,10,06,05,13.70
2005,07,10,06,06,13.70
2005,07,10,06,07,13.80
2005,07,10,06,08,13.80
2005,07,10,06,09,13.80
2005,07,10,06,10,13.80
2005,07,10,06,11,13.80
2005,07,10,06,12,13.90
2005,07,10,06,13,13.90
2005,07,10,06,14,13.90
2005,07,10,06,15,13.90
2005,07,10,06,16,13.90
2005,07,10,06,17,13.90
2005,07,10,06,18,13.90
2005,07,10,06,19,13.90
2005,07,10,06,20,13.90
2005,07,10,06,21,14.00
2005,07,10,06,22,14.00
2005,07,10,06,23,14.00
2005,07,10,06,24,13.90
2005,07,10,06,25,13.90
2005,07,10,06,26,13.90
2005,07,10,06,27,13.90
2005,07,10,06,28,13.90
2005,07,10,06,29,13.90
2005,07,10,06,30,13.90
2005,07,10,06,31,13.90
2005,07,10,06,32,13.90
2005,07,10,06,33,13.90
2005,07,10,06,34,13.90
2005,07,10,06,35,13.80
2005,07,10,06,36,13.80
2005,07,10,06,37,13.80
2005,07,10,06,38,13.70
2005,07,10,06,39,13.70
2005,07,10,06,40,13.70
2005,07,10,06,41,13.70
2005,07,10,06,42,13.70
2005,07,10,06,43,13.70
2005,07,10,06,44,13.70
2005,07,10,06,45,13.70
2005,07,10,06,46,13.70
2005,07,10,06,47,13.70
2005,07,10,06,48,13.70
2005,07,10,06,49,13.70
2005,07,10,06,50,13.80
2005,07,10,06,51,13.80
2005,07,10,06,52,13.80
2005,07,10,06,53,13.80
2005,07,10,06,54,13.80
2005,07,10,06,55,13.80
2005,07,10,06,56,13.80
2005,07,10,06,57,13.80
2005,07,10,06,58,13.80
2005,07,10,06,59,13.80
2005,07,10,07,00,13.80
2005,07,10,07,01,13.90
2005,07,10,07,02,13.90
2005,07,10,07,03,14.00
2005,07,10,07,04,14.10
2005,07,10,07,05,14.10
2005,07,10,07,06,14.20
2005,07,10,07,07,14.20
2005,07,10,07,08,14.30
2005,07,10,07,09,14.40
2005,07,10,07,10,14.50
2005,07,10,07,11,14.50
2005,07,10,07,12,14.60
2005,07,10,07,13,14.80
2005,07,10,07,14,14.80
2005,07,10,07,15,15.00
2005,07,10,07,16,15.10
2005,07,10,07,17,15.20
2005,07,10,07,18,15.20
2005,07,10,07,19,15.30
2005,07,10,07,20,15.40
2005,07,10,07,21,15.50
2005,07,10,07,22,15.60
2005,07,10,07,23,15.70
2005,07,10,07,24,15.80
2005,07,10,07,25,15.80
2005,07,10,07,26,15.80
2005,07,10,07,27,15.80
2005,07,10,07,28,15.80
2005,07,10,07,29,15.70
2005,07,10,07,30,15.60
2005,07,10,07,31,15.60
2005,07,10,07,32,15.60
2005,07,10,07,33,15.50
2005,07,10,07,34,15.50
2005,07,10,07,35,15.50
2005,07,10,07,36,15.50
2005,07,10,07,37,15.50
2005,07,10,07,38,15.50
2005,07,10,07,39,15.40
2005,07,10,07,40,15.40
2005,07,10,07,41,15.40
2005,07,10,07,42,15.40
2005,07,10,07,43,15.30
2005,07,10,07,44,15.30
2005,07,10,07,45,15.30
2005,07,10,07,46,15.30
2005,07,10,07,47,15.30
2005,07,10,07,48,15.30
2005,07,10,07,49,15.30
2005,07,10,07,50,15.30
2005,07,10,07,51,15.30
2005,07,10,07,52,15.30
2005,07,10,07,53,15.30
2005,07,10,07,54,15.20
2005,07,10,07,55,15.20
2005,07,10,07,56,15.20
2005,07,10,07,57,15.10
2005,07,10,07,58,15.10
2005,07,10,07,59,15.20
2005,07,10,08,00,15.10
2005,07,10,08,01,15.10
2005,07,10,08,02,15.10
2005,07,10,08,03,15.10
2005,07,10,08,04,15.10
2005,07,10,08,05,15.10
2005,07,10,08,06,15.10
2005,07,10,08,07,15.10
2005,07,10,08,08,15.10
2005,07,10,08,09,15.10
2005,07,10,08,10,15.10
2005,07,10,08,11,15.20
2005,07,10,08,12,15.20
2005,07,10,08,13,15.20
2005,07,10,08,14,15.20
2005,07,10,08,15,15.20
2005,07,10,08,16,15.20
2005,07,10,08,17,15.20
2005,07,10,08,18,15.20
2005,07,10,08,19,15.20
2005,07,10,08,20,15.20
2005,07,10,08,21,15.20
2005,07,10,08,22,15.20
2005,07,10,08,23,15.20
2005,07,10,08,24,15.30
2005,07,10,08,25,15.30
2005,07,10,08,26,15.30
2005,07,10,08,27,15.30
2005,07,10,08,28,15.30
2005,07,10,08,29,15.30
2005,07,10,08,30,15.30
2005,07,10,08,31,15.30
2005,07,10,08,32,15.30
2005,07,10,08,33,15.30
2005,07,10,08,34,15.30
2005,07,10,08,35,15.40
2005,07,10,08,36,15.40
2005,07,10,08,37,15.50
2005,07,10,08,38,15.50
2005,07,10,08,39,15.60
2005,07,10,08,40,15.60
2005,07,10,08,41,15.70
2005,07,10,08,42,15.80
2005,07,10,08,43,15.80
2005,07,10,08,44,15.90
2005,07,10,08,45,15.90
2005,07,10,08,46,15.90
2005,07,10,08,47,16.00
2005,07,10,08,48,16.10
2005,07,10,08,49,16.10
2005,07,10,08,50,16.10
2005,07,10,08,51,16.10
2005,07,10,08,52,16.10
2005,07,10,08,53,16.20
2005,07,10,08,54,16.30
2005,07,10,08,55,16.30
2005,07,10,08,56,16.40
2005,07,10,08,57,16.40
2005,07,10,08,58,16.40
2005,07,10,08,59,16.40
2005,07,10,09,00,16.40
2005,07,10,09,01,16.40
2005,07,10,09,02,16.40
2005,07,10,09,03,16.40
2005,07,10,09,04,16.40
2005,07,10,09,05,16.40
2005,07,10,09,06,16.40
2005,07,10,09,07,16.40
2005,07,10,09,08,16.50
2005,07,10,09,09,16.60
2005,07,10,09,10,16.70
2005,07,10,09,11,16.70
2005,07,10,09,12,16.80
2005,07,10,09,13,16.90
2005,07,10,09,14,17.00
2005,07,10,09,15,17.00
2005,07,10,09,16,17.10
2005,07,10,09,17,17.10
2005,07,10,09,18,17.20
2005,07,10,09,19,17.20
2005,07,10,09,20,17.10
2005,07,10,09,21,17.10
2005,07,10,09,22,17.10
2005,07,10,09,23,17.10
2005,07,10,09,24,17.20
2005,07,10,09,25,17.20
2005,07,10,09,26,17.20
2005,07,10,09,27,17.20
2005,07,10,09,28,17.30
2005,07,10,09,29,17.30
2005,07,10,09,30,17.30
2005,07,10,09,31,17.30
2005,07,10,09,32,17.40
2005,07,10,09,33,17.40
2005,07,10,09,34,17.50
2005,07,10,09,35,17.50
2005,07,10,09,36,17.50
2005,07,10,09,37,17.50
2005,07,10,09,38,17.40
2005,07,10,09,39,17.40
2005,07,10,09,40,17.40
2005,07,10,09,41,17.40
2005,07,10,09,42,17.40
2005,07,10,09,43,17.40
2005,07,10,09,44,17.40
2005,07,10,09,45,17.30
2005,07,10,09,46,17.20
2005,07,10,09,47,17.20
2005,07,10,09,48,17.10
2005,07,10,09,49,17.10
2005,07,10,09,50,17.10
2005,07,10,09,51,17.10
2005,07,10,09,52,17.10
2005,07,10,09,53,17.20
2005,07,10,09,54,17.20
2005,07,10,09,55,17.30
2005,07,10,09,56,17.20
2005,07,10,09,57,17.20
2005,07,10,09,58,17.30
2005,07,10,09,59,17.30
2005,07,10,10,00,17.40
2005,07,10,10,01,17.60
2005,07,10,10,02,17.70
2005,07,10,10,03,17.90
2005,07,10,10,04,18.00
2005,07,10,10,05,18.10
2005,07,10,10,06,18.00
2005,07,10,10,07,17.90
2005,07,10,10,08,17.80
2005,07,10,10,09,17.70
2005,07,10,10,10,17.60
2005,07,10,10,11,17.70
2005,07,10,10,12,17.80
2005,07,10,10,13,17.90
2005,07,10,10,14,17.90
2005,07,10,10,15,17.90
2005,07,10,10,16,17.90
2005,07,10,10,17,17.90
2005,07,10,10,18,18.10
2005,07,10,10,19,18.20
2005,07,10,10,20,18.20
2005,07,10,10,21,18.20
2005,07,10,10,22,18.20
2005,07,10,10,23,18.10
2005,07,10,10,24,18.10
2005,07,10,10,25,18.10
2005,07,10,10,26,18.00
2005,07,10,10,27,17.90
2005,07,10,10,28,17.90
2005,07,10,10,29,17.90
2005,07,10,10,30,18.00
2005,07,10,10,31,18.10
2005,07,10,10,32,18.10
2005,07,10,10,33,18.10
2005,07,10,10,34,18.00
2005,07,10,10,35,18.10
2005,07,10,10,36,18.20
2005,07,10,10,37,18.40
2005,07,10,10,38,18.40
2005,07,10,10,39,18.50
2005,07,10,10,40,18.60
2005,07,10,10,41,18.70
2005,07,10,10,42,18.50
2005,07,10,10,43,18.40
2005,07,10,10,44,18.40
2005,07,10,10,45,18.50
2005,07,10,10,46,18.60
2005,07,10,10,47,18.60
2005,07,10,10,48,18.70
2005,07,10,10,49,18.80
2005,07,10,10,50,18.80
2005,07,10,10,51,18.80
2005,07,10,10,52,18.70
2005,07,10,10,53,18.70
2005,07,10,10,54,18.70
2005,07,10,10,55,18.70
2005,07,10,10,56,18.70
2005,07,10,10,57,18.70
2005,07,10,10,58,18.60
2005,07,10,10,59,18.70
2005,07,10,11,00,18.70
2005,07,10,11,01,18.70
2005,07,10,11,02,18.70
2005,07,10,11,03,18.70
2005,07,10,11,04,18.70
2005,07,10,11,05,18.80
2005,07,10,11,06,18.90
2005,07,10,11,07,18.70
2005,07,10,11,08,18.60
2005,07,10,11,09,18.50
2005,07,10,11,10,18.40
2005,07,10,11,11,18.30
2005,07,10,11,12,18.20
2005,07,10,11,13,18.10
2005,07,10,11,14,17.90
2005,07,10,11,15,17.90
2005,07,10,11,16,17.90
2005,07,10,11,17,18.00
2005,07,10,11,18,18.10
2005,07,10,11,19,18.30
2005,07,10,11,20,18.50
2005,07,10,11,21,18.60
2005,07,10,11,22,18.70
2005,07,10,11,23,18.80
2005,07,10,11,24,18.90
2005,07,10,11,25,19.00
2005,07,10,11,26,19.10
2005,07,10,11,27,19.00
2005,07,10,11,28,18.80
2005,07,10,11,29,18.70
2005,07,10,11,30,18.60
2005,07,10,11,31,18.60
2005,07,10,11,32,18.60
2005,07,10,11,33,18.60
2005,07,10,11,34,18.50
2005,07,10,11,35,18.40
2005,07,10,11,36,18.50
2005,07,10,11,37,18.60
2005,07,10,11,38,18.80
2005,07,10,11,39,18.90
2005,07,10,11,40,18.90
2005,07,10,11,41,19.00
2005,07,10,11,42,19.10
2005,07,10,11,43,19.00
2005,07,10,11,44,18.90
2005,07,10,11,45,18.90
2005,07,10,11,46,18.90
2005,07,10,11,47,18.90
2005,07,10,11,48,19.00
2005,07,10,11,49,19.10
2005,07,10,11,50,19.30
2005,07,10,11,51,19.40
2005,07,10,11,52,19.50
2005,07,10,11,53,19.50
2005,07,10,11,54,19.50
2005,07,10,11,55,19.70
2005,07,10,11,56,19.80
2005,07,10,11,57,19.80
2005,07,10,11,58,19.90
2005,07,10,11,59,20.00
2005,07,10,12,00,20.20
2005,07,10,12,01,20.20
2005,07,10,12,02,20.30
2005,07,10,12,03,20.40
2005,07,10,12,04,20.50
2005,07,10,12,05,20.50
2005,07,10,12,06,20.30
2005,07,10,12,07,20.20
2005,07,10,12,08,20.20
2005,07,10,12,09,20.10
2005,07,10,12,10,20.00
2005,07,10,12,11,19.90
2005,07,10,12,12,19.90
2005,07,10,12,13,19.90
2005,07,10,12,14,20.00
2005,07,10,12,15,19.90
2005,07,10,12,16,19.90
2005,07,10,12,17,20.00
2005,07,10,12,18,20.00
2005,07,10,12,19,19.90
2005,07,10,12,20,19.90
2005,07,10,12,21,19.90
2005,07,10,12,22,19.90
2005,07,10,12,23,19.90
2005,07,10,12,24,20.00
2005,07,10,12,25,20.20
2005,07,10,12,26,20.20
2005,07,10,12,27,20.30
2005,07,10,12,28,20.40
2005,07,10,12,29,20.40
2005,07,10,12,30,20.50
2005,07,10,12,31,20.50
2005,07,10,12,32,20.40
2005,07,10,12,33,20.30
2005,07,10,12,34,20.20
2005,07,10,12,35,20.10
2005,07,10,12,36,19.90
2005,07,10,12,37,19.70
2005,07,10,12,38,19.60
2005,07,10,12,39,19.50
2005,07,10,12,40,19.50
2005,07,10,12,41,19.40
2005,07,10,12,42,19.40
2005,07,10,12,43,19.50
2005,07,10,12,44,19.60
2005,07,10,12,45,19.70
2005,07,10,12,46,19.80
2005,07,10,12,47,20.00
2005,07,10,12,48,20.20
2005,07,10,12,49,20.20
2005,07,10,12,50,20.10
2005,07,10,12,51,19.90
2005,07,10,12,52,19.90
2005,07,10,12,53,20.00
2005,07,10,12,54,20.10
2005,07,10,12,55,19.90
2005,07,10,12,56,19.60
2005,07,10,12,57,19.40
2005,07,10,12,58,19.40
2005,07,10,12,59,19.60
2005,07,10,13,00,19.70
2005,07,10,13,01,19.90
2005,07,10,13,02,20.10
2005,07,10,13,03,20.20
2005,07,10,13,04,20.20
2005,07,10,13,05,20.20
2005,07,10,13,06,20.20
2005,07,10,13,07,20.10
2005,07,10,13,08,20.00
2005,07,10,13,09,19.90
2005,07,10,13,10,19.90
2005,07,10,13,11,19.80
2005,07,10,13,12,19.60
2005,07,10,13,13,19.60
2005,07,10,13,14,19.50
2005,07,10,13,15,19.40
2005,07,10,13,16,19.50
2005,07,10,13,17,19.50
2005,07,10,13,18,19.50
2005,07,10,13,19,19.50
2005,07,10,13,20,19.60
2005,07,10,13,21,19.70
2005,07,10,13,22,19.80
2005,07,10,13,23,19.90
2005,07,10,13,24,19.90
2005,07,10,13,25,20.00
2005,07,10,13,26,20.10
2005,07,10,13,27,20.00
2005,07,10,13,28,19.90
2005,07,10,13,29,20.10
2005,07,10,13,30,20.20
2005,07,10,13,31,20.20
2005,07,10,13,32,20.00
2005,07,10,13,33,19.90
2005,07,10,13,34,19.90
2005,07,10,13,35,19.90
2005,07,10,13,36,20.00
2005,07,10,13,37,20.20
2005,07,10,13,38,20.20
2005,07,10,13,39,20.20
2005,07,10,13,40,20.20
2005,07,10,13,41,20.20
2005,07,10,13,42,20.10
2005,07,10,13,43,20.10
2005,07,10,13,44,20.00
2005,07,10,13,45,19.90
2005,07,10,13,46,19.90
2005,07,10,13,47,19.90
2005,07,10,13,48,19.90
2005,07,10,13,49,19.90
2005,07,10,13,50,20.00
2005,07,10,13,51,20.10
2005,07,10,13,52,20.10
2005,07,10,13,53,20.00
2005,07,10,13,54,19.90
2005,07,10,13,55,19.90
2005,07,10,13,56,19.90
2005,07,10,13,57,19.70
2005,07,10,13,58,19.60
2005,07,10,13,59,19.60
2005,07,10,14,00,19.60
2005,07,10,14,01,19.60
2005,07,10,14,02,19.60
2005,07,10,14,03,19.80
2005,07,10,14,04,19.90
2005,07,10,14,05,19.90
2005,07,10,14,06,20.00
2005,07,10,14,07,20.10
2005,07,10,14,08,20.00
2005,07,10,14,09,19.90
2005,07,10,14,10,19.80
2005,07,10,14,11,19.90
2005,07,10,14,12,20.00
2005,07,10,14,13,20.10
2005,07,10,14,14,20.10
2005,07,10,14,15,20.00
2005,07,10,14,16,19.90
2005,07,10,14,17,19.90
2005,07,10,14,18,19.90
2005,07,10,14,19,19.90
2005,07,10,14,20,19.90
2005,07,10,14,21,19.80
2005,07,10,14,22,19.90
2005,07,10,14,23,19.90
2005,07,10,14,24,19.80
2005,07,10,14,25,19.70
2005,07,10,14,26,19.60
2005,07,10,14,27,19.60
2005,07,10,14,28,19.50
2005,07,10,14,29,19.50
2005,07,10,14,30,19.40
2005,07,10,14,31,19.30
2005,07,10,14,32,19.20
2005,07,10,14,33,19.20
2005,07,10,14,34,19.10
2005,07,10,14,35,19.10
2005,07,10,14,36,19.10
2005,07,10,14,37,19.10
2005,07,10,14,38,19.10
2005,07,10,14,39,18.90
2005,07,10,14,40,18.90
2005,07,10,14,41,18.90
2005,07,10,14,42,18.90
2005,07,10,14,43,18.90
2005,07,10,14,44,18.90
2005,07,10,14,45,18.90
2005,07,10,14,46,18.90
2005,07,10,14,47,18.90
2005,07,10,14,48,19.00
2005,07,10,14,49,19.10
2005,07,10,14,50,19.10
2005,07,10,14,51,19.10
2005,07,10,14,52,18.90
2005,07,10,14,53,18.80
2005,07,10,14,54,18.70
2005,07,10,14,55,18.70
2005,07,10,14,56,18.70
2005,07,10,14,57,18.80
2005,07,10,14,58,18.80
2005,07,10,14,59,18.80
2005,07,10,15,00,18.90
2005,07,10,15,01,18.90
2005,07,10,15,02,18.90
2005,07,10,15,03,18.90
2005,07,10,15,04,18.90
2005,07,10,15,05,18.90
2005,07,10,15,06,18.80
2005,07,10,15,07,18.80
2005,07,10,15,08,18.60
2005,07,10,15,09,18.50
2005,07,10,15,10,18.50
2005,07,10,15,11,18.60
2005,07,10,15,12,18.70
2005,07,10,15,13,18.70
2005,07,10,15,14,18.70
2005,07,10,15,15,18.70
2005,07,10,15,16,18.70
2005,07,10,15,17,18.70
2005,07,10,15,18,18.90
2005,07,10,15,19,18.90
2005,07,10,15,20,18.90
2005,07,10,15,21,18.90
2005,07,10,15,22,19.10
2005,07,10,15,23,19.10
2005,07,10,15,24,19.10
2005,07,10,15,25,19.10
2005,07,10,15,26,19.10
2005,07,10,15,27,19.20
2005,07,10,15,28,19.20
2005,07,10,15,29,19.20
2005,07,10,15,30,19.30
2005,07,10,15,31,19.30
2005,07,10,15,32,19.30
2005,07,10,15,33,19.20
2005,07,10,15,34,19.10
2005,07,10,15,35,19.10
2005,07,10,15,36,19.10
2005,07,10,15,37,19.10
2005,07,10,15,38,19.10
2005,07,10,15,39,19.10
2005,07,10,15,40,19.20
2005,07,10,15,41,19.20
2005,07,10,15,42,19.30
2005,07,10,15,43,19.30
2005,07,10,15,44,19.20
2005,07,10,15,45,19.20
2005,07,10,15,46,19.20
2005,07,10,15,47,19.20
2005,07,10,15,48,19.10
2005,07,10,15,49,19.20
2005,07,10,15,50,19.10
2005,07,10,15,51,19.20
2005,07,10,15,52,19.30
2005,07,10,15,53,19.30
2005,07,10,15,54,19.30
2005,07,10,15,55,19.40
2005,07,10,15,56,19.40
2005,07,10,15,57,19.50
2005,07,10,15,58,19.50
2005,07,10,15,59,19.60
2005,07,10,16,00,19.70
2005,07,10,16,01,19.70
2005,07,10,16,02,19.80
2005,07,10,16,03,19.80
2005,07,10,16,04,19.90
2005,07,10,16,05,19.90
2005,07,10,16,06,19.90
2005,07,10,16,07,19.80
2005,07,10,16,08,19.80
2005,07,10,16,09,19.70
2005,07,10,16,10,19.70
2005,07,10,16,11,19.80
2005,07,10,16,12,19.90
2005,07,10,16,13,19.90
2005,07,10,16,14,20.00
2005,07,10,16,15,20.10
2005,07,10,16,16,20.00
2005,07,10,16,17,19.90
2005,07,10,16,18,20.10
2005,07,10,16,19,20.10
2005,07,10,16,20,20.00
2005,07,10,16,21,19.90
2005,07,10,16,22,19.90
2005,07,10,16,23,19.90
2005,07,10,16,24,19.90
2005,07,10,16,25,19.90
2005,07,10,16,26,19.90
2005,07,10,16,27,19.90
2005,07,10,16,28,19.90
2005,07,10,16,29,19.90
2005,07,10,16,30,19.90
2005,07,10,16,31,19.90
2005,07,10,16,32,19.80
2005,07,10,16,33,19.70
2005,07,10,16,34,19.60
2005,07,10,16,35,19.50
2005,07,10,16,36,19.40
2005,07,10,16,37,19.40
2005,07,10,16,38,19.50
2005,07,10,16,39,19.40
2005,07,10,16,40,19.40
2005,07,10,16,41,19.30
2005,07,10,16,42,19.30
2005,07,10,16,43,19.30
2005,07,10,16,44,19.30
2005,07,10,16,45,19.20
2005,07,10,16,46,19.20
2005,07,10,16,47,19.10
2005,07,10,16,48,19.20
2005,07,10,16,49,19.20
2005,07,10,16,50,19.20
2005,07,10,16,51,19.30
2005,07,10,16,52,19.40
2005,07,10,16,53,19.40
2005,07,10,16,54,19.40
2005,07,10,16,55,19.40
2005,07,10,16,56,19.40
2005,07,10,16,57,19.40
2005,07,10,16,58,19.40
2005,07,10,16,59,19.40
2005,07,10,17,00,19.40
2005,07,10,17,01,19.40
2005,07,10,17,02,19.40
2005,07,10,17,03,19.30
2005,07,10,17,04,19.30
2005,07,10,17,05,19.40
2005,07,10,17,06,19.40
2005,07,10,17,07,19.40
2005,07,10,17,08,19.30
2005,07,10,17,09,19.40
2005,07,10,17,10,19.40
2005,07,10,17,11,19.40
2005,07,10,17,12,19.40
2005,07,10,17,13,19.40
2005,07,10,17,14,19.40
2005,07,10,17,15,19.40
2005,07,10,17,16,19.40
2005,07,10,17,17,19.40
2005,07,10,17,18,19.40
2005,07,10,17,19,19.30